Location: Unspecified
(40.7945°N, 111.1337°W)
Time: 19:56:23
(UTC-06:00)

Transit 2A - Visible Passes

Search period start: 24 June 2019 00:00
Search period end: 04 July 2019 00:00
Orbit: 593 x 966 km, 66.7° (Epoch: 23 June)

Date Brightness Start Highest point End Pass type
(mag) Time Alt. Az. Time Alt. Az. Time Alt. Az.
24 Jun 7.0 01:44:05 35° WSW 01:46:29 53° NW 01:52:37 10° NNE visible
24 Jun 8.8 03:28:19 10° WNW 03:31:09 13° NW 03:33:57 10° N visible
24 Jun 7.9 23:29:53 20° E 23:29:53 20° E 23:34:01 10° ENE visible
25 Jun 6.5 01:10:20 46° SW 01:12:18 73° WNW 01:18:35 10° NNE visible
25 Jun 8.7 02:52:39 10° WNW 02:56:37 17° NW 03:00:30 10° N visible
25 Jun 8.2 22:56:03 13° E 22:56:03 13° E 22:58:41 10° ENE visible
26 Jun 6.3 00:36:29 52° SSW 00:38:10 84° ESE 00:44:29 10° NNE visible
26 Jun 8.4 02:17:23 10° W 02:22:09 22° NW 02:26:50 10° N visible
27 Jun 6.5 00:02:31 47° SSE 00:04:05 61° ESE 00:10:17 10° NE visible
27 Jun 8.1 01:42:57 12° WSW 01:47:46 28° NW 01:53:03 10° N visible
27 Jun 6.8 23:28:24 36° SSE 23:30:05 43° ESE 23:35:59 10° NE visible
28 Jun 7.7 01:08:49 16° WSW 01:13:26 37° NW 01:19:10 10° NNE visible
28 Jun 7.2 22:54:06 25° SE 22:56:07 31° ESE 23:01:31 10° NE visible
29 Jun 7.2 00:34:30 18° SW 00:39:10 50° NW 00:45:13 10° NNE visible
29 Jun 9.0 02:21:27 10° WNW 02:23:54 12° NW 02:26:19 10° N visible
29 Jun 7.6 22:19:31 17° SE 22:22:13 22° ESE 22:26:50 10° ENE visible
29 Jun 6.7 23:59:53 17° SW 00:04:58 68° WNW 00:11:12 10° NNE visible
30 Jun 8.9 01:45:39 10° WNW 01:49:20 16° NW 01:52:59 10° N visible
30 Jun 8.0 21:45:03 10° SE 21:48:22 15° ESE 21:51:40 10° ENE visible
30 Jun 6.4 23:24:49 12° SSW 23:30:49 89° SE 23:37:07 10° NNE visible
01 Jul 8.7 01:10:17 10° W 01:14:53 20° NW 01:19:22 10° N visible
01 Jul 6.4 22:50:28 10° SSW 22:56:44 65° ESE 23:02:56 10° NE visible
02 Jul 8.3 00:35:12 10° WSW 00:40:28 26° NW 00:45:36 10° N visible
02 Jul 6.7 22:16:42 10° S 22:22:43 46° ESE 22:28:39 10° NE visible
03 Jul 7.9 00:00:23 10° WSW 00:06:07 35° NW 00:11:44 10° NNE visible
03 Jul 7.1 21:43:10 10° S 21:48:44 33° ESE 21:54:14 10° NE visible
03 Jul 7.5 23:25:45 10° SW 23:31:51 46° NW 23:37:49 10° NNE visible
